Погода в Курорте Киран

Россия / Республика Бурятия     50°19′38″N   106°51′14″E
темп.,
°C
ветер,
м/с
пор.,
м/с
влажн.,
%
обл.,
%
осадки,
мм/ч
давл.,
гПа
погр.,
м
23 апреля, пт
пт2323:00−3с51195100 3.7 1035560
02:00−4с51188100 5.3 1037578
05:00−4с51076100 0.2 1038467
08:00−2с6971100 0.2 1039540
11:00+2ссв6756100 0.0 10381065
14:00+5св6750100 0.1 10361455
17:00+5всв5660100 0.1 10361064
20:00+3св4873100 0.6 1036470
24 апреля, сб
сб2423:00+3ссв5975100 0.2 1037610
02:00+2с3568100 0.2 1036136
05:000зсз1169100 0.0 103614
08:00+2с2357100 0.0 1034329
11:00+4ссв1155100 0.0 1032541
14:00+9в3455100 0.0 1026851
17:00+11ююз0159100 0.1 1023505
20:00+8сз2365100 0.1 102347
25 апреля, вс
вс2523:00+6св2470100 0.4 1022135
02:00+5св1279100 0.4 101859
05:00+5св1184100 0.3 101641
08:00+4з3494100 2.3 1018242
11:00+2сз4797100 3.1 1020435
14:00+3ссз4894100 4.4 1020578
17:00+3с7978100 0.7 1020955
20:00+3с51171100 0.8 1020993
26 апреля, пн
пн2623:00+2ссв51275100 0.0 1020929
02:000с7147535 0.0 1019796
05:00−2ссв7157212 0.0 1019884
08:00+1с10176374 0.0 10201321
11:00+4с121648100 0.0 10191886
14:00+6с121443100 0.1 10192156
17:00+6с111443100 0.1 10202202
20:00+3ссз611595 0.1 1023471
27 апреля, вт
вт2723:000з226983 0.0 102517
02:00−1з367086 0.0 1025102
05:000зсз3472100 0.1 102658
08:00+3ссз61253100 0.2 10261784
11:00+5сз5846100 0.1 10261876
14:00+9ссз6931100 0.2 10222574
17:00+9с783281 0.0 10211999
20:00+4ссв36490 0.0 1023123